Regional Weather Roundup
Issued by NWS New Orleans/Baton Rouge, LA

Home | Current Version | Previous Version | Text Only | Print | Product List | Glossary On
Versions: 1 2 3 4 5 6 7 8 9 10 11 12 13 14 15 16 17 18 19 20 21 22 23 24 25 26 27 28 29 30 31 32 33 34 35 36 37 38 39 40 41 42 43 44 45 46 47 48 49 50
399
ASUS44 KLIX 251210
RWRLIX
NEW ORLEANS REGIONAL WEATHER ROUNDUP
NATIONAL WEATHER SERVICE NEW ORLEANS LA
600 AM CST TUE NOV 25 2014

NOTE: "FAIR" INDICATES FEW OR NO CLOUDS BELOW 12,000 FEET WITH NO
      SIGNIFICANT WEATHER AND/OR OBSTRUCTIONS TO VISIBILITY.
      SKY/WX - SKY CONDITION AND SIGNIFICANT WEATHER.
      TMP - AIR TEMPERATURE.     DP    - DEWPOINT TEMPERATURE.
      RH  - RELATIVE HUMIDITY.   PRES  - PRESSURE.
      HI  - HEAT INDEX.          WCI   - WIND CHILL INDEX.

*  THESE STATIONS ARE NOT NWS OR FAA STATIONS AND ARE NOT UNDER
   NWS QUALITY CONTROL.

LAZ038-040-048-061>063-065>067-069-251300-
SOUTHEAST LOUISIANA

CITY           SKY/WX    TMP DP  RH WIND       PRES   REMARKS
N.O. AUDUBON     N/A     53  39  58 MISG        N/A
6HR MIN TEMP:  53; 6HR MAX TEMP:  56;

N.O. INTL ARPT MOCLDY    53  38  56 N13       30.13R
6HR MIN TEMP:  53; 6HR MAX TEMP:  56;

N.O. LAKEFRONT MOCLDY    56  39  53 NE18      30.13R
6HR MIN TEMP:  56; 6HR MAX TEMP:  57; 6HR PCP: TRACE;

N.O. DOWNTOWN* PTSUNNY   55  36  47 N7        30.13R
6HR MIN TEMP:  54; 6HR MAX TEMP:  57;

SLIDELL        MOCLDY    49  38  65 N6        30.12R
6HR MIN TEMP:  49; 6HR MAX TEMP:  53;

BATON ROUGE    CLEAR     41  38  89 CALM      30.16R
6HR MIN TEMP:  41; 6HR MAX TEMP:  50;

BOOTHVILLE     CLOUDY    58  42  55 NE17G28   30.08R
6HR MIN TEMP:  58; 6HR MAX TEMP:  60;

BELLE CHASSE   MOCLDY    54  35  48 N7        30.12R
6HR MIN TEMP:  54; 6HR MAX TEMP:  57;

BOGALUSA*        N/A     44  39  84 CALM      30.15R
6HR MIN TEMP:  44; 6HR MAX TEMP:  49;

NEW ROADS*       N/A     41  39  91 CALM      30.18R
6HR MIN TEMP:  41; 6HR MAX TEMP:  49;

GONZALES*      PTSUNNY   46  42  84 N3        30.15R
6HR MIN TEMP:  46; 6HR MAX TEMP:  52;

HAMMOND*       CLOUDY    46  41  81 CALM      30.16R
HOUMA*         CLOUDY    52  39  62 N9        30.12R
PORT FOURCHON* CLOUDY    57  41  54 NE21G29   30.13R

$$

MSZ070-080>082-251300-
SOUTHERN MISSISSIPPI

CITY           SKY/WX    TMP DP  RH WIND       PRES   REMARKS
MCCOMB         CLEAR     41  35  79 N5        30.15R
6HR MIN TEMP:  40; 6HR MAX TEMP:  51;

GULFPORT       MOCLDY    53  35  50 N8        30.10R
6HR MIN TEMP:  52; 6HR MAX TEMP:  55;

BILOXI         MOCLDY    53  37  56 NE9       30.10R
6HR MIN TEMP:  53; 6HR MAX TEMP:  55;

PASCAGOULA     CLOUDY    52  36  54 N8        30.09S
6HR MIN TEMP:  51; 6HR MAX TEMP:  56;


$$

COASTAL OBSERVATIONS
LAKE AND NEARSHORE STATIONS

STATION/POSITION TIME  TEMP    WIND        PRES    WAVE
                       AIR SEA DIR/SP/G            HT/PER
                 (UTC) (F)     (DEG/KT/KT) (MB)    (FT/S)
PASCAGOULA       1200   53      20/  8/ 11 1018.5
WAVELAND YACHT   1200   54      20/ 10/ 14 1018.5
GRAND ISLE       1200   58 64   40/ 13/ 23 1019.3
SOUTHWEST PASS   1200   60                 1018.2
NEW CANAL        1200   55 56   30/ 16/ 18 1020.3
SHELL BEACH      1200   56 54   20/ 21/ 24 1019.4

OFFSHORE STATIONS

STATION/POSITION TIME  TEMP    WIND        PRES    WAVE
                       AIR SEA DIR/SP/G            HT/PER
                 (UTC) (F)     (DEG/KT/KT) (MB)    (FT/S)
64 S DAUPHIN ISL 1129   59 71   40/ 25/ 29 1017.9    7/ 6

$$




USA.gov is the U.S. government's official web portal to all federal, state and local government web resources and services.